This demonstration page uses our WeatherBlox Daily Observations layout. Learn more.

Left ArrowRight Arrow

Hourly Observations for August 19, 2021

Temp ( °F °C ) Dew Point ( °F °C ) Humidity (%) Winds ( mph kmh ) Pressure ( in mb ) Visibility ( mi km ) Precip ( " mm )
12:53 am 00:53 Cloudy with Haze 78 25.6 43 6.1 29 29 N 7 11 29.86 1011 6 10 0.00 0.00
1:41 am 01:41 Cloudy with Haze 77 25 43 6.1 30 30 N 8 13 29.87 1011 5 8 0.00 0.00
1:53 am 01:53 Cloudy with Haze 79 26.1 44 6.7 29 29 N 12 19 29.86 1011 5 8 0.00 0.00
2:46 am 02:46 Cloudy with Haze 79 26.1 45 7.2 30 30 N 9 15 29.87 1011 5 8 0.00 0.00
2:53 am 02:53 Mostly Cloudy with Haze 79 26.1 45 7.2 30 30 N 8 13 29.87 1012 5 8 0.00 0.00
3:53 am 03:53 Cloudy with Haze 72 22.2 46 7.8 40 40 NW 5 7 29.88 1012 5 8 0.00 0.00
4:53 am 04:53 Hazy 77 25 45 7.2 32 32 NNW 9 15 29.88 1012 5 8 0.00 0.00
5:53 am 05:53 Hazy 76 24.4 45 7.2 33 33 N 10 17 29.88 1012 5 8 0.00 0.00
6:53 am 06:53 Hazy 76 24.4 45 7.2 33 33 N 8 13 29.90 1013 3 5 0.00 0.00
7:53 am 07:53 Hazy 76 24.4 45 7.2 33 33 N 5 7 29.91 1013 3 5 0.00 0.00
8:53 am 08:53 Hazy 79 26.1 43 6.1 28 28 NNE 14 22 29.92 1013 4 6 0.00 0.00
9:53 am 09:53 Hazy 83 28.3 43 6.1 24 24 N 12 19 29.92 1013 4 6 0.00 0.00
10:53 am 10:53 Hazy 86 30 42 5.6 21 21 N 16 26 29.91 1013 5 8 0.00 0.00
11:53 am 11:53 Hazy 88 31.1 42 5.6 20 20 N 15 24 29.89 1012 5 8 0.00 0.00
12:53 pm 12:53 Hazy 91 32.8 40 4.4 17 17 N 9 15 29.86 1011 5 8 0.00 0.00
1:53 pm 13:53 Cloudy with Haze 92 33.3 42 5.6 18 18 VRB 6 9 29.84 1010 4 6 0.00 0.00
2:53 pm 14:53 Cloudy with Haze 95 35 42 5.6 16 16 NNE 15 24 29.80 1009 4 6 0.00 0.00
3:11 pm 15:11 Cloudy with Haze 95 35 42 5.6 16 16 VRB 7 11 29.78 1009 3 5 0.00 0.00
3:26 pm 15:26 Cloudy with Haze 95 35 42 5.6 16 16 NNE 7 11 29.77 1008 4 6 0.00 0.00
3:40 pm 15:40 Cloudy with Haze 96 35.6 42 5.6 15 15 NE 12 19 29.76 1008 3 5 0.00 0.00
3:53 pm 15:53 Cloudy with Haze 96 35.6 42 5.6 15 15 NE 15 24 29.78 1008 3 5 0.00 0.00
4:38 pm 16:38 Cloudy with Haze 97 36.1 42 5.6 15 15 VRB 6 9 29.74 1007 3 5 0.00 0.00
4:53 pm 16:53 Cloudy with Haze 96 35.6 42 5.6 15 15 E 9 15 29.76 1008 3 5 0.00 0.00
5:53 pm 17:53 Cloudy with Haze 96 35.6 42 5.6 15 15 NNE 8 13 29.75 1007 3 5 0.00 0.00
6:53 pm 18:53 Cloudy with Haze 95 35 41 5 15 15 NE 7 11 29.74 1007 3 5 0.00 0.00
7:53 pm 19:53 Cloudy with Haze 91 32.8 42 5.6 18 18 NE 5 7 29.75 1007 4 6 0.00 0.00
8:53 pm 20:53 Cloudy with Haze 81 27.2 43 6.1 26 26 NW 5 7 29.76 1008 5 8 0.00 0.00
9:53 pm 21:53 Cloudy with Haze 85 29.4 41 5 21 21 N 6 9 29.77 1008 4 6 0.00 0.00
10:53 pm 22:53 Mostly Cloudy with Haze 81 27.2 42 5.6 25 25 NNW 5 7 29.78 1008 4 6 0.00 0.00
11:53 pm 23:53 Cloudy with Haze 78 25.6 44 6.7 30 30 N 5 7 29.78 1009 4 6 0.00 0.00

Powered by AerisWeather